GW4127 Weather Reports


time (UTC)temp
C
wind
direction
speed
KPH
gust
KPH
rain 1hr
cm
rain 24hr
cm
rain mn
cm
humidity
%
barometer
mb
20260502151506 13 301 8.0 20.9 0.00 0.25 0.25 76 1024.8
20260502150126 12 301 8.0 16.1 0.00 0.25 0.25 75 1025.0
20260502123005 15 301 8.0 19.3 0.00 0.25 0.25 63 1026.4
20260502121558 15 301 4.8 20.9 0.00 0.25 0.25 66 1026.4
20260502114515 13 301 9.7 27.4 0.00 0.25 0.25 69 1026.6
20260502113008 13 301 6.4 19.3 0.00 0.25 0.25 69 1026.9
20260502111501 13 301 6.4 20.9 0.00 0.25 0.25 69 1026.9
20260502110050 13 301 8.0 19.3 0.00 0.25 0.25 71 1027.1
20260502104540 13 301 3.2 11.3 0.00 0.25 0.25 74 1027.2
20260502103014 12 301 8.0 22.5 0.00 0.25 0.25 78 1027.1
20260502101500 12 301 3.2 17.7 0.00 0.25 0.25 81 1027.2
20260502071506 9 301 1.6 9.7 0.00 0.25 0.25 98 1027.3
20260502070056 10 301 0.0 4.8 0.03 0.25 0.25 98 1027.5
20260502064559 10 301 0.0 6.4 0.05 0.25 0.25 98 1027.4
20260502064500 10 301 1.6 8.0 0.05 0.25 0.25 98 1027.3
20260502063113 10 301 0.0 11.3 0.08 0.25 0.25 98 1027.4
20260502061555 10 301 0.0 8.0 0.08 0.25 0.25 98 1027.3
20260502060055 10 301 0.0 9.7 0.08 0.23 0.23 98 1027.3
20260502054549 10 301 0.0 4.8 0.15 0.20 0.20 98 1027.1
20260502053021 10 301 0.0 6.4 0.15 0.18 0.18 98 1027.2
20260502051510 10 301 0.0 8.0 0.15 0.18 0.18 98 1027.1
20260502050058 10 301 1.6 12.9 0.15 0.15 0.15 98 1026.9
20260502044551 10 301 1.6 9.7 0.05 0.05 0.05 98 1026.9
20260502043046 10 301 4.8 12.9 0.03 0.03 0.03 98 1026.7
20260502041538 10 301 1.6 12.9 0.03 0.03 0.03 98 1026.7
20260502040019 10 301 0.0 11.3 0.00 0.00 0.00 98 1026.7
20260502034523 11 301 1.6 6.4 0.00 0.00 0.00 98 1026.7
20260502033010 11 301 1.6 8.0 0.00 0.00 0.00 98 1026.7
20260502031514 11 301 1.6 8.0 0.00 0.00 0.00 98 1026.9
20260502030110 11 301 1.6 9.7 0.00 0.00 0.00 98 1027.0
20260502030002 11 301 3.2 9.7 0.00 0.00 0.00 98 1026.9
20260502024550 11 301 1.6 11.3 0.00 0.00 0.00 98 1026.8
20260502023043 11 301 0.0 8.0 0.00 0.00 0.00 98 1026.8
20260502021542 11 301 1.6 6.4 0.00 0.00 0.00 98 1026.9
20260502020037 11 301 0.0 6.4 0.00 0.00 0.00 98 1027.2
20260502014524 11 301 1.6 6.4 0.00 0.00 0.00 98 1027.4
20260502013016 11 301 0.0 8.0 0.00 0.00 0.00 97 1027.5
20260502011515 11 301 0.0 4.8 0.00 0.00 0.00 97 1027.5
20260502010000 11 301 0.0 4.8 0.00 0.00 0.00 97 1027.7
20260502004557 11 301 1.6 8.0 0.00 0.00 0.00 97 1027.6
20260502003054 11 301 4.8 12.9 0.00 0.00 0.00 97 1027.7
20260502001543 10 301 4.8 14.5 0.00 0.00 0.00 97 1028.1
20260502000020 10 301 1.6 16.1 0.00 0.00 0.00 97 1028.3
20260501234508 10 301 0.0 8.0 0.00 0.00 0.00 97 1028.6
20260501233005 10 301 0.0 9.7 0.00 0.00 0.00 97 1028.6
20260501231550 10 301 0.0 6.4 0.00 0.00 0.00 97 1028.6
20260501230043 10 301 0.0 8.0 0.00 0.00 0.00 96 1028.5
20260501224551 10 301 1.6 8.0 0.00 0.00 0.00 96 1028.5
20260501223046 10 301 0.0 6.4 0.00 0.00 0.00 96 1028.5
20260501221514 10 301 1.6 8.0 0.00 0.00 0.00 96 1028.5
20260501220010 10 301 0.0 8.0 0.00 0.00 0.00 96 1028.5
20260501214512 10 301 0.0 9.7 0.00 0.00 0.00 96 1028.4
20260501213108 10 301 3.2 8.0 0.00 0.00 0.00 96 1028.5
20260501211601 10 301 1.6 6.4 0.00 0.00 0.00 95 1028.4
20260501210048 10 301 0.0 4.8 0.00 0.00 0.00 95 1028.4
20260501204534 10 301 3.2 6.4 0.00 0.00 0.00 95 1028.4
20260501203018 10 301 0.0 8.0 0.00 0.00 0.00 94 1028.4
20260501201506 10 301 3.2 11.3 0.00 0.00 0.00 94 1028.2
20260501200053 10 301 1.6 11.3 0.00 0.00 0.00 93 1028.1
20260501194550 10 301 3.2 9.7 0.00 0.00 0.00 92 1028.2
20260501193045 10 301 4.8 17.7 0.00 0.00 0.00 91 1028.1
20260501191525 11 301 8.0 16.1 0.00 0.00 0.00 89 1027.8
20260501190017 11 301 8.0 16.1 0.00 0.00 0.00 86 1027.7
20260501184507 12 301 0.0 8.0 0.00 0.00 0.00 85 1027.5
20260501183058 12 301 0.0 9.7 0.00 0.00 0.00 84 1027.4
20260501181600 12 301 1.6 11.3 0.00 0.00 0.00 82 1027.6
20260501180033 13 301 0.0 11.3 0.00 0.00 0.00 82 1027.3
20260501174516 13 301 1.6 6.4 0.00 0.00 0.00 80 1027.2
20260501173010 13 301 1.6 8.0 0.00 0.00 0.00 79 1027.2
20260501171606 13 301 0.0 8.0 0.00 0.00 0.00 79 1027.2
20260501170038 14 301 3.2 6.4 0.00 0.00 0.00 78 1027.0
20260501164555 15 301 1.6 8.0 0.00 0.00 0.00 76 1027.1
20260501163029 14 301 4.8 16.1 0.00 0.00 0.00 76 1027.0
20260501161529 15 301 3.2 9.7 0.00 0.00 0.00 74 1026.9